Weather History for Ardmore, OK

Change the Weather History Date:

Wednesday, July 24, 2013

  Actual Average Record
Temperature  
Mean Temperature 80 °F -  
Max Temperature 94 °F 93 °F 107 °F (2011)
Min Temperature 68 °F 72 °F 64 °F (2000)
Cooling Degree Days 16    
Growing Degree Days 30 (Base 50)    
Moisture  
Dew Point 67 °F    
Average Humidity 71    
Maximum Humidity 88    
Minimum Humidity 41    
Precipitation  
Precipitation 0.17 in - - ()
Sea Level Pressure  
Sea Level Pressure 29.94 in    
Wind  
Wind Speed 5 mph (East)    
Max Wind Speed 25 mph    
Max Gust Speed 43 mph    
Visibility 10 miles    
Events Rain , Thunderstorm    
Averages and records for this station are not official NWS values.
T = Trace of Precipitation, MM = Missing Value Source: NWS Daily Summary

Daily Weather History Graph

Daily Weather History Graph

Search for Another Location

Airport:

Trip Planner

Search our weather history database for the weather conditions in past years. The results will help you decide how hot, cold, wet, or windy it might be!

Date:

Astronomy

Jul. 24, 2013 Rise Set
Actual Time 6:33 AM CDT 8:35 PM CDT
Civil Twilight 6:05 AM CDT 9:03 PM CDT
Nautical Twilight 5:31 AM CDT 9:37 PM CDT
Astronomical Twilight 4:54 AM CDT 10:13 PM CDT
Moon 9:52 PM CDT (7/24) 8:46 AM CDT (7/24)
Length of Visible Light 14h 58m
Length of Day
14h 02m
Waning Gibbous, 94% of the Moon is Illuminated
Jul 24
Waning Gibbous
Jul 29
Last Quarter
Aug 6
New
Aug 14
First Quarter
Aug 20
Full

Hourly Weather History & Observations

Time (CDT) Temp. Heat Index Dew Point Humidity Pressure Visibility Wind Dir Wind Speed Gust Speed Precip Events Conditions
12:15 AM 80.1 °F 83.7 °F 71.6 °F 75% 29.84 in 10.0 mi Calm Calm - N/A   Clear
12:35 AM 80.1 °F 83.6 °F 71.1 °F 74% 29.87 in 10.0 mi NE 3.5 mph - N/A   Clear
12:55 AM 80.2 °F 83.9 °F 71.2 °F 74% 29.87 in 10.0 mi SE 3.5 mph - N/A   Clear
1:15 AM 79.9 °F - 70.9 °F 74% 29.87 in 10.0 mi SE 3.5 mph - N/A   Clear
1:35 AM 79.7 °F - 70.0 °F 72% 29.87 in 10.0 mi Calm Calm - N/A   Clear
1:55 AM 79.7 °F - 69.4 °F 71% 29.87 in 10.0 mi Calm Calm - N/A   Clear
2:15 AM 79.3 °F - 68.9 °F 70% 29.87 in 10.0 mi Calm Calm - N/A   Clear
2:35 AM 78.8 °F - 68.7 °F 71% 29.85 in 10.0 mi SSE 3.5 mph - N/A   Clear
2:55 AM 78.4 °F - 67.6 °F 69% 29.86 in 10.0 mi Calm Calm - N/A   Clear
3:15 AM 79.7 °F - 66.9 °F 65% 29.87 in 10.0 mi Calm Calm - N/A   Scattered Clouds
3:35 AM 80.2 °F 82.6 °F 66.9 °F 64% 29.89 in 10.0 mi ENE 3.5 mph - N/A   Scattered Clouds
3:55 AM 79.7 °F - 64.6 °F 60% 29.94 in 10.0 mi ENE 15.0 mph 32.2 mph N/A   Mostly Cloudy
4:15 AM 70.9 °F - 64.6 °F 80% 30.01 in 3.0 mi ENE 25.3 mph 42.6 mph 0.05 in Rain , Thunderstorm Heavy Thunderstorms and Rain
4:35 AM 69.3 °F - 64.6 °F 85% 29.98 in 4.0 mi East 17.3 mph 25.3 mph 0.17 in Rain , Thunderstorm Light Thunderstorms and Rain
4:55 AM 69.3 °F - 64.6 °F 85% 29.99 in 10.0 mi East 11.5 mph - 0.17 in Thunderstorm Scattered Clouds
5:15 AM 69.4 °F - 64.8 °F 85% 30.00 in 10.0 mi East 9.2 mph - N/A   Mostly Cloudy
5:35 AM 69.8 °F - 64.9 °F 84% 29.99 in 10.0 mi ESE 6.9 mph - N/A   Overcast
5:55 AM 69.8 °F - 65.3 °F 86% 29.97 in 10.0 mi ESE 9.2 mph - N/A   Overcast
6:15 AM 70.0 °F - 65.7 °F 86% 29.95 in 10.0 mi SE 9.2 mph - N/A   Mostly Cloudy
6:35 AM 70.2 °F - 66.2 °F 87% 29.96 in 10.0 mi SSE 11.5 mph 19.6 mph N/A   Scattered Clouds
7:55 AM 68.0 °F - 64.4 °F 88% 30.02 in 10.0 mi SSW 11.5 mph - N/A Rain Light Rain
8:55 AM 68.0 °F - 64.4 °F 88% 29.99 in 10.0 mi SSE 9.2 mph 16.1 mph N/A Rain Light Rain
11:55 AM 77.0 °F - 68.0 °F 74% 29.96 in 10.0 mi West 5.8 mph - N/A   Clear
12:55 PM 84.2 °F 88.4 °F 69.8 °F 62% 29.96 in 10.0 mi Calm Calm - N/A   Clear
1:55 PM 89.6 °F 92.2 °F 66.2 °F 46% 29.96 in 10.0 mi NNW 8.1 mph - N/A   Clear
3:55 PM 93.2 °F 96.2 °F 66.2 °F 41% 29.96 in 10.0 mi NE 8.1 mph - N/A   Clear
4:55 PM 93.2 °F 96.2 °F 66.2 °F 41% 29.94 in 10.0 mi ENE 6.9 mph - N/A   Scattered Clouds
5:55 PM 91.4 °F 94.0 °F 66.2 °F 43% 29.94 in 10.0 mi ENE 8.1 mph - N/A   Scattered Clouds
6:55 PM 91.4 °F 94.0 °F 66.2 °F 43% 29.94 in 10.0 mi East 6.9 mph - N/A   Clear
7:55 PM 87.8 °F 90.4 °F 66.2 °F 49% 29.95 in 10.0 mi East 4.6 mph - N/A   Scattered Clouds
9:55 PM 77.0 °F - 69.8 °F 78% 29.99 in 10.0 mi Calm Calm - N/A   Clear
11:35 PM 75.2 °F - 68.2 °F 79% 30.02 in 10.0 mi ENE 3.5 mph - N/A   Clear
11:55 PM 74.5 °F - 67.8 °F 80% 30.02 in 10.0 mi East 3.5 mph - N/A   Clear